Location: Krakow
(50.0830°N, 19.9170°E)
Time: 04:05:45
(UTC+01:00)

Tiros 1 - All Passes

Search period start: 08 February 2023 00:00
Search period end: 18 February 2023 00:00
Orbit: 629 x 662 km, 48.4° (Epoch: 07 February)

Date Brightness Start Highest point End Pass type
(mag) Time Alt. Az. Time Alt. Az. Time Alt. Az.
08 Feb - 00:21:08 10° WSW 00:25:44 68° S 00:30:21 10° E night (unlit)
08 Feb - 02:03:09 10° W 02:07:45 65° S 02:12:23 10° ESE night (unlit)
08 Feb - 03:45:25 10° W 03:49:29 30° SSW 03:53:34 10° SSE visible
08 Feb - 21:24:31 10° S 21:27:41 18° SE 21:30:52 10° E night (unlit)
08 Feb - 23:04:40 10° SW 23:09:08 50° SSE 23:13:37 10° E night (unlit)
09 Feb - 00:46:28 10° W 00:51:04 73° S 00:55:44 10° E night (unlit)
09 Feb - 02:28:33 10° W 02:33:02 49° SSW 02:37:32 10° SE night (unlit)
09 Feb - 04:11:21 10° W 04:14:28 18° SW 04:17:36 10° S visible
09 Feb - 21:48:37 10° SSW 21:52:40 31° SSE 21:56:45 10° E night (unlit)
09 Feb - 23:29:50 10° WSW 23:34:24 66° S 23:39:01 10° E night (unlit)
10 Feb - 01:11:49 10° W 01:16:26 67° S 01:21:03 10° ESE night (unlit)
10 Feb - 02:54:03 10° W 02:58:11 32° SSW 03:02:20 10° SSE night (unlit)
10 Feb - 20:33:26 10° S 20:36:25 17° SE 20:39:23 10° E night (unlit)
10 Feb - 22:13:23 10° SW 22:17:49 48° SSE 22:22:16 10° E night (unlit)
10 Feb - 23:55:08 10° W 23:59:45 73° S 00:04:23 10° E night (unlit)
11 Feb - 01:37:13 10° W 01:41:42 51° SSW 01:46:13 10° SE night (unlit)
11 Feb - 03:19:54 10° W 03:23:11 19° SW 03:26:29 10° S night (unlit)
11 Feb - 20:57:24 10° SSW 21:01:23 29° SSE 21:05:22 10° E night (unlit)
11 Feb - 22:38:31 10° WSW 22:43:04 64° SSE 22:47:40 10° E night (unlit)
12 Feb - 00:20:30 10° W 00:25:06 68° S 00:29:43 10° ESE night (unlit)
12 Feb - 02:02:42 10° W 02:06:53 34° SSW 02:11:05 10° SE night (unlit)
12 Feb - 19:42:23 10° S 19:45:07 16° SE 19:47:53 10° ESE visible
12 Feb - 21:22:06 10° SW 21:26:29 45° SSE 21:30:54 10° E night (unlit)
12 Feb - 23:03:48 10° W 23:08:25 73° S 23:13:02 10° E night (unlit)
13 Feb - 00:45:52 10° W 00:50:23 53° SSW 00:54:55 10° ESE night (unlit)
13 Feb - 02:28:28 10° W 02:31:54 21° SW 02:35:20 10° SSE night (unlit)
13 Feb - 20:06:11 10° SSW 20:10:04 27° SSE 20:13:58 10° E visible
13 Feb - 21:47:11 10° WSW 21:51:44 62° SSE 21:56:19 10° E night (unlit)
13 Feb - 23:29:09 10° W 23:33:45 70° S 23:38:21 10° ESE night (unlit)
14 Feb - 01:11:20 10° W 01:15:33 36° SSW 01:19:49 10° SE night (unlit)
14 Feb - 02:55:36 10° WSW 02:56:45 11° SW 02:57:53 10° SSW night (unlit)
14 Feb - 18:51:22 10° S 18:53:51 14° SE 18:56:20 10° ESE visible
14 Feb - 20:30:49 10° SW 20:35:10 43° SSE 20:39:33 10° E visible
14 Feb - 22:12:27 10° W 22:17:03 73° S 22:21:40 10° E night (unlit)
14 Feb - 23:54:31 10° W 23:59:03 56° SSW 00:03:34 10° ESE night (unlit)
15 Feb - 01:37:02 10° W 01:40:35 22° SW 01:44:10 10° SSE night (unlit)
15 Feb - 19:14:58 10° SSW 19:18:46 26° SSE 19:22:34 10° E visible
15 Feb - 20:55:51 10° WSW 21:00:24 60° SSE 21:04:57 10° E visible
15 Feb - 22:37:48 10° W 22:42:23 71° S 22:47:00 10° ESE night (unlit)
16 Feb - 00:19:58 10° W 00:24:14 38° SSW 00:28:31 10° SE night (unlit)
16 Feb - 02:03:45 10° WSW 02:05:28 12° SW 02:07:11 10° SSW night (unlit)
16 Feb - 18:00:22 10° SSE 18:02:33 13° SE 18:04:43 10° ESE visible
16 Feb - 19:39:30 10° SW 19:43:50 41° SSE 19:48:10 10° E visible
16 Feb - 21:21:06 10° W 21:25:42 72° S 21:30:18 10° E visible
16 Feb - 23:03:10 10° W 23:07:42 58° SSW 23:12:14 10° ESE night (unlit)
17 Feb - 00:45:36 10° W 00:49:17 24° SW 00:52:59 10° SSE night (unlit)
17 Feb - 18:23:45 10° SSW 18:27:27 24° SE 18:31:08 10° E visible
17 Feb - 20:04:30 10° WSW 20:09:02 58° SSE 20:13:35 10° E visible
17 Feb - 21:46:26 10° W 21:51:02 72° S 21:55:38 10° ESE visible
17 Feb - 23:28:34 10° W 23:32:53 40° SSW 23:37:13 10° SE night (unlit)
